{"data":{"norad_id":41173,"epoch":"2026-09-20T04:57:59.622048Z","epoch_age_seconds":43569,"freshness":"FRESH","line1":"1 41173U 15078A   26263.20694007  .00000915  00000+0  33107-4 0  9996","line2":"2 41173  97.4606 269.1755 0013679  96.8101 263.4697 15.30986855599084","mean_motion":15.30986855,"eccentricity":0.0013679,"inclination_deg":97.4606,"raan_deg":269.1755,"arg_perigee_deg":96.8101,"mean_anomaly_deg":263.4697,"bstar":3.3107e-5,"rev_number":59908,"period_min":94.056979999348,"perigee_km":463.49518059722,"apogee_km":482.23815643355,"semimajor_km":6851.0036685154,"source":"CELESTRAK","updated_at":"2026-09-20T09:00:47.149944Z"}}